Location: Saratoga Springs
(43.0831°N, 73.7850°W)
Time: 02:50:45
(UTC-04:00)

Vanguard 3 - Pass Details

Date: 02 May 2024
Orbit: 509 x 3232 km, 33.3° (Epoch: 26 May)

Event Time Altitude Azimuth Distance (km) Brightness Sun altitude
Exits shadow 03:03:16 22° 245° (WSW) 5,131 10.7 -24.1°
Maximum altitude 03:17:02 59° 178° (S) 3,091 9.7 -22.6°
Drops below altitude 10° 03:30:16 10° 103° (ESE) 4,486 11.3 -21.1°
Sets 03:33:12 0° 100° (E) 5,174 11.7 -20.7°
